Regional Weather Roundup
Issued by NWS

Home | Current Version | Previous Version | Graphics & Text | Print | Product List | Glossary On
Versions: 1 2 3 4 5 6 7 8 9 10 11 12 13 14 15 16 17 18 19 20 21 22 23 24 25 26 27 28 29 30 31 32 33 34 35 36 37 38 39 40 41 42 43 44 45 46 47 48 49 50
000
ASUS45 KSLC 262310
RWRUT

UTAH REGIONAL WEATHER ROUNDUP
NATIONAL WEATHER SERVICE SALT LAKE CITY UT
500 PM MDT THU MAY 26 2016

UTZ001>011-023>025-270000-

NORTHERN UTAH

CITY           SKY/WX    TMP DP  RH WIND       PRES   REMARKS
BRIGHAM CITY     N/A     69  35  28 N22       29.93F
HILL AFB       MOSUNNY   67  38  33 NW12      29.95S
LOGAN          PTSUNNY   64  43  46 N10       29.94F
OGDEN          MOSUNNY   69  38  32 NW13G20   29.93F
PROVO AIRPORT  PTSUNNY   70  37  30 NW15      29.93S
SALT LAKE CITY PTSUNNY   71  36  27 NW10      29.93F
VERNAL         CLOUDY    67  29  24 E7        29.90F
WENDOVER       MOSUNNY   70  36  28 NW18      29.96F
HEBER CITY     CLOUDY    55  36  47 NE16      29.98R
WEST JORDAN    SUNNY     66  37  34 NW14G22   29.96S

$$

UTZ012>022-026-027-270000-

SOUTHERN/CENTRAL UTAH

CITY           SKY/WX    TMP DP  RH WIND       PRES   REMARKS
BLANDING       PTSUNNY   63  29  27 W17G30    29.97S
BRYCE CANYON   PTSUNNY   51  32  48 NE14      30.07F
CEDAR CITY     CLOUDY    56  34  43 SE10      30.00F
DELTA          PTSUNNY   64  32  29 E12       29.94S
HANKSVILLE     CLOUDY    70  30  23 W17G23    29.91R
MILFORD        PTSUNNY   67  31  26 E12       29.94F
MOAB/CYNLANDS  CLOUDY    70  31  23 NW30G36   29.83R
PRICE          CLOUDY    54  33  45 NE9       29.99F
ST GEORGE      CLOUDY    72  37  28 E17G25    29.94F
KANAB          CLOUDY    64  34  32 W17G24    30.03R

$$

REGIONAL REPORTS     COLORADO/ARIZONA

CITY           SKY/WX    TMP DP  RH WIND       PRES   REMARKS
CRAIG, CO      CLOUDY    65  31  28 NW10G18   29.88F
GRAND JUNCTION MOSUNNY   70  25  18 SW10G17   29.83S
RIFLE          CLOUDY    63  30  28 NW28G38   29.86R
MONTROSE       CLOUDY    62  33  33 SE17      29.92F
CORTEZ         CLOUDY    59  32  36 NE14      29.93F
PAGE, AZ       PTSUNNY   69  32  25 NW10      29.93F
GRAND CANYON   CLOUDY    61  28  28 NW13G23   30.05S
KINGMAN        MOSUNNY   77  25  14 W12G22    29.93F
FLAGSTAFF      CLOUDY    55  26  32 SE3       30.04S

$$

REGIONAL REPORTS    NEVADA/IDAHO/WYOMING

CITY           SKY/WX    TMP DP  RH WIND       PRES   REMARKS
LAS VEGAS, NV  MOSUNNY   83  31  15 W13       29.83F
ELY            MOSUNNY   56  32  40 N16       30.05F
ELKO           PTSUNNY   64  39  39 VRB5      30.03F
POCATELLO, ID  MOSUNNY   69  32  25 W7G17     29.96F
BURLEY         SUNNY     66  41  40 SW13      29.95F
EVANSTON, WY   LGT RAIN  52  36  54 E7        30.01F
ROCK SPRINGS   MOSUNNY   58  28  32 N9        29.95S
KEMMERER       LGT RAIN  52  37  58 SW6       30.01F

$$



USA.gov is the U.S. government's official web portal to all federal, state and local government web resources and services.